Regional Weather Roundup
Issued by NWS Little Rock, AR

Home | Current Version | Previous Version | Graphics & Text | Print | Product List | Glossary On
Versions: 1 2 3 4 5 6 7 8 9 10 11 12 13 14 15 16 17 18 19 20 21 22 23 24 25 26 27 28 29 30 31 32 33 34 35 36
000
ASUS44 KLZK 222305
RWRLZK

WEATHER ROUNDUP FOR ARKANSAS
NATIONAL WEATHER SERVICE LITTLE ROCK AR
600 PM CDT WED OCT 22 2014

NOTE: "FAIR" INDICATES FEW OR NO CLOUDS BELOW 12,000 FEET WITH NO
SIGNIFICANT WEATHER AND/OR OBSTRUCTIONS TO VISIBILITY.

ARZ001-003-010-029-230000-
NORTHWEST ARKANSAS

CITY           SKY/WX    TMP DP  RH WIND       PRES   REMARKS
FAYETTEVILLE   PTCLDY    68  53  58 S12       30.14R
FORT SMITH     CLEAR     72  51  47 E6        30.12S
HARRISON       CLEAR     65  50  58 E7        30.16S
BENTONVILLE    MOCLDY    72  54  53 E6        30.13F
ROGERS         CLEAR     69  55  60 E6        30.14S
SILOAM SPGS    CLEAR     70  52  52 SW8       30.14S
HIGHFILL       MOCLDY    71  54  54 CALM      30.12F
SPRINGDALE     MOCLDY    72  55  56 E6        30.15S
$$

ARZ004-005-016-230000-
NORTH CENTRAL ARKANSAS

CITY           SKY/WX    TMP DP  RH WIND       PRES   REMARKS
BATESVILLE     CLEAR     64  43  45 E8        30.18S
FLIPPIN        CLEAR     64  46  52 SE3       30.17S
MTN HOME       CLEAR     64  48  56 SE5       30.16F
$$

ARZ040-041-230000-
WEST CENTRAL ARKANSAS

CITY           SKY/WX    TMP DP  RH WIND       PRES   REMARKS
MENA           PTCLDY    70  55  60 CALM      30.14R
MOUNT IDA      CLEAR     70  53  54 E3        30.12S
$$

ARZ009-017-025-026-028-230000-
NORTHEAST ARKANSAS

CITY           SKY/WX    TMP DP  RH WIND       PRES   REMARKS
CORNING        FAIR      61  45  55 NE5       30.21S HAZE
JONESBORO      CLEAR     64  42  44 NE6       30.19S
NEWPORT        LGT RAIN  64  47  54 E7        30.20S
WALNUT RIDGE   CLEAR     63  39  42 NE7       30.19S
BLYTHEVILLE    CLEAR     64  44  48 NE6       30.19S
$$

ARZ022-023-033-042-044-230000-
CENTRAL ARKANSAS

CITY           SKY/WX    TMP DP  RH WIND       PRES   REMARKS
LITTLE ROCK    CLEAR     68  47  46 NE10      30.16S
N LITTLE ROCK  CLEAR     65  51  59 E8        30.16S
JACKSONVILLE   CLEAR     66  48  52 E8        30.16S
SEARCY         CLEAR     65  44  46 E7        30.19S
HOT SPRINGS    CLEAR     69  50  50 E8        30.14S
RUSSELLVILLE   CLEAR     68  51  54 VRB3      30.14F
$$

ARZ036-230000-
EAST ARKANSAS

CITY           SKY/WX    TMP DP  RH WIND       PRES   REMARKS
WEST MEMPHIS   CLEAR     63  43  48 NE7       30.16R
$$

ARZ050-053-066-070-073-230000-
SOUTHWEST ARKANSAS

CITY           SKY/WX    TMP DP  RH WIND       PRES   REMARKS
ARKADELPHIA    FAIR      69  56  63 E5        30.13F
CAMDEN         CLEAR     72  50  46 N5        30.12F
TEXARKANA      CLEAR     71  52  50 E5        30.11R
EL DORADO      CLEAR     70  52  52 NE6       30.11F
DE QUEEN       CLEAR     72  53  51 SE6       30.11R
$$

ARZ056-057-069-230000-
SOUTHEAST ARKANSAS

CITY           SKY/WX    TMP DP  RH WIND       PRES   REMARKS
PINE BLUFF     CLEAR     67  47  48 E9        30.15S
STUTTGART      CLEAR     64  43  45 NE8       30.17S
MONTICELLO     CLEAR     68  50  52 NE5       30.13S

$$





USA.gov is the U.S. government's official web portal to all federal, state and local government web resources and services.